Orbital Elements at Epoch 2459200.5 (2020-Dec-17.0) TDB
Reference: JPL 23 (heliocentric ecliptic J2000)
Element | Value | Uncertainty (1-sigma) | Units |
e | .05898426475009306 | 3.2502e-08 | |
a | 2.383098221292984 | 8.7756e-09 | au |
q | 2.242532924882763 | 7.9593e-08 | au |
i | 12.31954358088294 | 3.1885e-06 | deg |
node | 165.5410538569225 | 1.8658e-05 | deg |
peri | 32.98927869130483 | 3.8068e-05 | deg |
M | 237.7901285674632 | 3.4252e-05 | deg |
tp | 2459656.657822753263 (2022-Mar-18.15782275) | 0.0001289 | TDB |
period | 1343.727918753495 3.68 | 7.4222e-06 2.032e-08 | d yr |
n | .2679113792128044 | 1.4798e-09 | deg/d |
Q | 2.523663517703206 | 9.2932e-09 | au |
|
| | Orbit Determination Parameters
Additional Information
|